Location: Peebles
(55.6412°N, 3.1714°W)
Time: 20:36:54
(UTC+01:00)

deb AGENA D - Pass Details

Date: 10 July 2022
Orbit: 951 x 1019 km, 99.8° (Epoch: 17 August)

Event Time Altitude Azimuth Distance (km) Brightness Sun altitude
Rises 23:41:21 0° 103° (ESE) 3,759 ? -9.5°
Reaches altitude 10° 23:44:28 10° 88° (E) 2,807 ? -9.7°
Maximum altitude 23:48:55 21° 43° (NE) 2,120 ? -9.9°
Drops below altitude 10° 23:53:21 10° 357° (N) 2,795 ? -10.2°
Sets 23:56:27 0° 343° (NNW) 3,738 ? -10.3°
